Location: Easter Hill Village
(37.9235°N, 122.3444°W)
Time: 10:53:28
(UTC+00:00)

Cosmos 1400 Rocket - Pass Details

Date: 16 September 2019
Orbit: 522 x 568 km, 81.2° (Epoch: 22 October)

Event Time Altitude Azimuth Distance (km) Brightness Sun altitude
Exits shadow 13:06:31 13° 258° (WSW) 1,581 4.5 -9.7°
Maximum altitude 13:08:11 17° 288° (WNW) 1,409 4.4 -9.4°
Drops below altitude 10° 13:10:45 10° 329° (NNW) 1,779 5.2 -8.9°
Sets 13:13:33 0° 350° (N) 2,667 6.3 -8.3°
